"Pseudo-MPEC" for P21kcLa

Created 2021 Sep 20 16:07:14 UT using Find_Orb

Click here for an explanation of pseudo-MPECs

 
 Astrometry: 
     P21kcLa  C2021 08 07;)?FSXRl'CkI.dfUB:hKJ#rPl8IfIAf$,eWqJy:oHH34W/)EZS#,F51
     P21kcLa  C2021 08 07]oDa5G(@,b_=VgYJ6'L#p^3y]GR`.i/RPETX!tcY\Ci#Vmn]sqSWF51
     P21kcLa  C2021 08 07*R;R^U`NelXd7et/(-k%vI[C=r=hLtsXi%qE?Ed1#Nfn9:XAH#xLF51
     P21kcLa  C2021 08 07[BCS92Yg_lWdcV)b@nen44aOF\wI\OPqKsJd_^,DPc.9skU9:t-NF51
     P21kcLa  C2021 09 05.n#.PTXf*.]/[aAstrometrytAEeOCNBswU3rZd?inN!Z2c=AD$;F52
     P21kcLa  C2021 09 05e$u+-r3Ph,MCty96ZW/#K7$_IAVke5`+96j.#PwcXt]WhskE]HKtF52
     P21kcLa  C2021 09 050DGAi3VOrIebINeTKN2yfCg9igv78Koew8RSgJV-2[QZ`ZF9FC[_F52
     P21kcLa  C2021 09 052H\$:-BpVann:G5d$BQ^W\rqr1b;lNn8R.yN$U5r#)tlHR5S6F5bF51
     P21kcLa  C2021 09 05rRZ)redacted;nuOp#C./+a7/'\s0Vf2bUexU!:MSt0!I9LM\Z6AF51
     P21kcLa KC2021 09 06BN+8Ugf?w,R_;=7prQx%%.'NHSU^glct1V)RvH)(ThCLY9Dd7JiQH21
     P21kcLa KC2021 09 06qH^M`%sfiGQyP]uRf#aT3g9W++[t_fFaJsGPFhsGsrwWm)CJDRJWH21
     P21kcLa KC2021 09 06?=iKJya7E;rJErl?ejpB7T@axreclick0k]yp_#J!no#0B'/:sN4H21
     P21kcLa KC2021 09 079r*[0^UK7MkGsNFigI9hrcF(_M7SG?g`8Lu0+'GXrn+nOhrh0j+VA77
     P21kcLa KC2021 09 07LD*=x+]?EOkt+V%2#8+LC+trMl;^6:bExw]=\l.Wwd6cA(nGLTBxA77
     P21kcLa KC2021 09 07[hm?%H4Amf!D$``0nqa2bKTjsUp'wo=@6yd$@1kBUI:p/K[fQCk_A77
     P21kcLa |C2021 09 073?:*FlS=2ITe4X_yI'/Lv%\GC=gt`YYMRNWx@d,4Jq(V!,80X45nH06
     P21kcLa |C2021 09 075Y1-K5ASgo0@5O6uc:leBHfN:QaNfU=yAt-l/NyQCdK29;-USgwUH06
     P21kcLa ^C2021 09 07.44179300 55 38.938+17 07 57.97   ~97LMx21.87GVNEOCP568
     P21kcLa ^C2021 09 07.44300200 55 38.860+17 07 57.42   ~97LMx21.91GVNEOCP568
     P21kcLa ^C2021 09 07.44421300 55 38.786+17 07 56.92   ~97LMx21.83GVNEOCP568
     P21kcLa KC2021 09 08-p^gx%B$c6e0ym/*js/fJchYp/1Lqkv/Xt4TjmrZX\ZLEsNs_R6NA71
     P21kcLa KC2021 09 08f-7QY.BU),.tyT2bh8baT[i'@urHa%`88HZGf4*sw$L#3^@Uv(+cA71
     P21kcLa KC2021 09 12_f][^,B=l5/:IV[^a.5?Z8,s2In2.1ruoS3!OQmd`ahqB2*;Q?-8L01
     P21kcLa KC2021 09 128@Ta4fJF^Eok2pA==_$$MO!Sa+HlJV*v^Xd%(d='Y/9OPWl55K=dL01
     P21kcLa IC2021 09 12LJK1sq\OR%:0i?8.]?gFYqvj=e%h\in-nZZecAnh\Y1Uq?l7a8JXL01
     P21kcLa KC2021 09 13h:OT?r6b@wV1upt=?byxt.om!`Tmdf\$p6wh9.XI/iE%dbD;vIlHL01
     P21kcLa KC2021 09 13$,rqCTO9D''$@i6jRi2DQhere0Jl-%oSMN_)FVLT`eRgF0ajG+B'L01
     P21kcLa KC2021 09 13tTKKeOqLTA%[odeou7I5WUWe=GfIjGwxLI=ti0oHl3W3bn6w%kS]L01
     P21kcLa KC2021 09 131p*QsNyq'KfortDMHh86*\#aJe/`b5,or=fVH9+G02s^0-x8%iB;L01
     P21kcLa  C2021 09 15l]eXGt\2j.)0dQIIy4[LrFL%x?^gaZy?lFy@\10jnt.DXS2m%*9+F51
     P21kcLa  C2021 09 15dlJHYfm?v9euZGaDkexplanationUsy/q1b)%A3rMQQTxqVE6R9!F51

Station data:
(568) Mauna Kea  (N19.826116 W155.472200)  US/Hawaii.
(A71) Stixendorf  (N48.428775 E15.453300)  Austria.
(A77) Observatoire Chante-Perdrix, Dauban  (N43.999665 E5.647500)  France.
   Observers J.-F. Soulier, C. Rinner, F. Kugel, J. Nicolas.
(F51) Pan-STARRS 1, Haleakala  (N20.707235 W156.255910)  US/Hawaii.
   Observers N. Primak, A. Schultz, S. Watters, J. Thiel, T. Goggia. Measurer
   PS1 Science Consortium. 1.8-m Ritchey-Chrétien + CCD.
(F52) Pan-STARRS 2, Haleakala  (N20.707384 W156.255910)  US/Hawaii. 1.8-m
   Ritchey-Chrétien + CCD.
(H06) RAS Observatory, Mayhill  (N32.903325 W105.528700)  US/New
   Mexico.  Observers E. Guido, G. Sostero, V. Gonano, L. Donato.
(H21) Astronomical Research Observatory, Westfield  (N39.483057 W87.968270)
   US/Illinois. 0.76-m f/3.0 astrograph + CCD.
(L01) Višnjan Observatory, Tičan  (N45.290900 E13.749300)  Croatia.
   Observers K. Korlević, E. Pettarin. Measurer E. Pettarin. 1.0-m f/2.9
   reflector + CCD.

Orbital elements:  P21kcLa
   Perihelion 2021 Sep 6.835083 TT = 20:02:31 (JD 2459464.335083)
Epoch 2021 Sep  7.0 TT = JDT 2459464.5   Earth MOID: 0.5185   AutoNEOCP
M   0.04485409                      (J2000 ecliptic)
n   0.27198011     Peri.  118.32999
a   2.35927162     Node   238.43140
e   0.3574413      Incl.    4.49430
P   3.62           H   20.6     G   0.15   q 1.51597035  Q 3.20257290
3 of 31 observations 2021 Sept. 7 (60.8 min); mean residual 5".80
Residuals in arcseconds: 
210807 F51(742'+ 401'+)   210906 H21(1008+  407+)   210912 L01(5504- 2644-)   
210807 F51(741'+ 401'+)   210907 A77  5.9-  1.1-    210912 L01(5508- 2646-)   
210807 F51(741'+ 401'+)   210907 A77 11.3+  2.6+    210912 L01(5512- 2648-)   
210807 F51(740'+ 400'+)   210907 A77  5.4-  1.1-    210913 L01(6641- 3150-)   
210905 F52(2074+  930+)   210907 H06( 178-  168-)   210913 L01(6645- 3152-)   
210905 F52(2060+  922+)   210907 H06( 187-  173-)   210913 L01(6650- 3154-)   
210905 F52(2046+  915+)   210907 568( 347-  251-)   210913 L01(6659- 3158-)   
210905 F51(1873+  824+)   210907 568( 349-  252-)   210915 F51(9255- 4268-)   
210905 F51(1872+  823+)   210907 568( 350-  253-)   210915 F51(9264- 4272-)   
210906 H21(1026+  417+)   210908 A71(2048- 1054-)   
210906 H21(1013+  410+)   210908 A71(2063- 1062-)   

Ephemerides (geocentric):
Date (UTC) HH   RA              Dec         delta   r     elong  mag
---- -- -- --  -------------   -----------  ------ ------ -----  ---
2021 09 20 16  00 57 25.880   +17 00 37.05  .54784 1.5204 155.7 21.0
2021 09 20 17  00 57 25.640   +17 00 27.91  .54777 1.5204 155.8 21.0
2021 09 20 18  00 57 25.397   +17 00 18.73  .54771 1.5204 155.8 21.0
2021 09 20 19  00 57 25.151   +17 00 09.51  .54764 1.5204 155.9 21.0
2021 09 20 20  00 57 24.903   +17 00 00.25  .54758 1.5205 155.9 21.0
2021 09 20 21  00 57 24.652   +16 59 50.94  .54751 1.5205 155.9 21.0
2021 09 20 22  00 57 24.398   +16 59 41.60  .54744 1.5205 156.0 21.0
2021 09 20 23  00 57 24.141   +16 59 32.21  .54738 1.5205 156.0 21.0
2021 09 21 00  00 57 23.882   +16 59 22.78  .54731 1.5206 156.1 21.0
2021 09 21 01  00 57 23.620   +16 59 13.30  .54725 1.5206 156.1 21.0
2021 09 21 02  00 57 23.355   +16 59 03.79  .54719 1.5206 156.1 21.0
2021 09 21 03  00 57 23.087   +16 58 54.23  .54712 1.5207 156.2 21.0
2021 09 21 04  00 57 22.817   +16 58 44.63  .54706 1.5207 156.2 21.0
2021 09 21 05  00 57 22.544   +16 58 34.99  .54699 1.5207 156.3 21.0
2021 09 21 06  00 57 22.269   +16 58 25.30  .54693 1.5207 156.3 21.0
2021 09 21 07  00 57 21.991   +16 58 15.58  .54687 1.5208 156.3 21.0
2021 09 21 08  00 57 21.710   +16 58 05.81  .54680 1.5208 156.4 21.0
2021 09 21 09  00 57 21.426   +16 57 56.00  .54674 1.5208 156.4 21.0
2021 09 21 10  00 57 21.140   +16 57 46.15  .54668 1.5208 156.4 21.0
2021 09 21 11  00 57 20.851   +16 57 36.25  .54662 1.5209 156.5 21.0
2021 09 21 12  00 57 20.560   +16 57 26.32  .54655 1.5209 156.5 21.0
2021 09 21 13  00 57 20.266   +16 57 16.34  .54649 1.5209 156.6 21.0
2021 09 21 14  00 57 19.969   +16 57 06.32  .54643 1.5210 156.6 21.0
2021 09 21 15  00 57 19.670   +16 56 56.26  .54637 1.5210 156.6 21.0
2021 09 21 16  00 57 19.368   +16 56 46.16  .54631 1.5210 156.7 21.0
2021 09 21 17  00 57 19.063   +16 56 36.01  .54625 1.5210 156.7 21.0
2021 09 21 18  00 57 18.756   +16 56 25.83  .54619 1.5211 156.8 21.0
2021 09 21 19  00 57 18.446   +16 56 15.60  .54613 1.5211 156.8 21.0
2021 09 21 20  00 57 18.134   +16 56 05.33  .54607 1.5211 156.8 21.0
2021 09 21 21  00 57 17.819   +16 55 55.02  .54601 1.5212 156.9 21.0
2021 09 21 22  00 57 17.501   +16 55 44.66  .54595 1.5212 156.9 21.0
2021 09 21 23  00 57 17.181   +16 55 34.27  .54589 1.5212 157.0 21.0
2021 09 22 00  00 57 16.858   +16 55 23.83  .54583 1.5212 157.0 21.0
2021 09 22 01  00 57 16.532   +16 55 13.36  .54577 1.5213 157.0 21.0
2021 09 22 02  00 57 16.204   +16 55 02.84  .54571 1.5213 157.1 21.0
2021 09 22 03  00 57 15.874   +16 54 52.28  .54566 1.5213 157.1 21.0
2021 09 22 04  00 57 15.540   +16 54 41.68  .54560 1.5214 157.2 21.0
2021 09 22 05  00 57 15.205   +16 54 31.03  .54554 1.5214 157.2 21.0
2021 09 22 06  00 57 14.866   +16 54 20.35  .54548 1.5214 157.2 21.0
2021 09 22 07  00 57 14.526   +16 54 09.62  .54543 1.5214 157.3 21.0
2021 09 22 08  00 57 14.182   +16 53 58.85  .54537 1.5215 157.3 21.0
2021 09 22 09  00 57 13.836   +16 53 48.05  .54531 1.5215 157.4 21.0
2021 09 22 10  00 57 13.488   +16 53 37.20  .54526 1.5215 157.4 21.0
2021 09 22 11  00 57 13.137   +16 53 26.30  .54520 1.5216 157.4 21.0
2021 09 22 12  00 57 12.783   +16 53 15.37  .54514 1.5216 157.5 21.0
2021 09 22 13  00 57 12.427   +16 53 04.40  .54509 1.5216 157.5 21.0
2021 09 22 14  00 57 12.069   +16 52 53.38  .54503 1.5217 157.6 21.0
2021 09 22 15  00 57 11.708   +16 52 42.33  .54498 1.5217 157.6 21.0